Weather in Novoye Gankino

Russia / Samara Oblast     53°56′54″N   51°50′35″E
temp.,
°C
wind,
m/s
gust,
m/s
humid.,
%
clouds,
%
prec.,
mm/h
press.,
hPa
HPBL,
m
28 february, sun
sun2801:00−11nw369698 0.0 998170
04:00−13nnw499699 0.1 1000238
07:00−13nnw51094100 0.1 1001292
10:00−12nnw5894100 0.1 1004341
13:00−11nnw5892100 0.1 1006419
16:00−11nnw5893100 0.1 1008453
19:00−13nnw4994100 0.1 1010324
22:00−16nnw369795 0.2 1012116
1 march, mon
mon101:00−18nw349891 0.0 101468
04:00−20nw339980 0.0 101642
07:00−22nw339964 0.0 101830
10:00−20nnw369551 0.0 1020222
13:00−17nw359368 0.0 1021276
16:00−16nw469479 0.0 1022331
19:00−20wnw2210088 0.0 102120
22:00−21sw2210058 0.0 102120
2 march, tue
tue201:00−21sw339916 0.0 101933
04:00−18ssw5109856 0.0 1016215
07:00−16ssw61296100 0.1 1013290
10:00−12ssw71294100 0.7 1010421
13:00−8ssw71394100 0.9 1006542
16:00−4ssw71395100 2.1 1004610
19:00−2sw61297100 1.1 1001505
22:00−1w4895100 3.0 1001298
3 march, wed
wed301:00−5w369783 0.0 1001124
04:00−7w239884 0.1 100236
07:00−7w259795 0.1 1002182
10:00−6w359694 0.3 1004250
13:00−4wnw469597 0.1 1004410
16:00−4nw579296 0.2 1005571
19:00−5nw4893100 0.1 1006528
22:00−11nw239688 0.2 100826
4 march, thu
thu401:00−11w239761 0.1 100861
04:00−11w359678 0.2 1009107
07:00−12wsw359892 0.1 1009108
10:00−10sw599592 0.1 1009264
13:00−7sw7119395 0.0 1007465
16:00−6sw8149297 0.2 1004748
19:00−4sw101792100 0.3 1001949
22:00−2sw101794100 1.3 9991100